Location: Unspecified
(50.7693°N, 0.0000°E)
Time: 07:39:34
(UTC+00:00)

Transit 2A - Pass Details

Date: 21 August 2020
Orbit: 591 x 967 km, 66.7° (Epoch: 20 September)

Event Time Altitude Azimuth Distance (km) Brightness Sun altitude
Rises 03:12:20 0° 317° (NW) 3,658 9.5 -15.0°
Reaches altitude 10° 03:15:17 10° 307° (NW) 2,688 8.7 -14.6°
Maximum altitude 03:20:29 28° 251° (WSW) 1,663 7.2 -14.0°
Enters shadow 03:24:24 14° 201° (SSW) 2,242 7.9 -13.6°
